AO-07 1 07530U 74089B 15254.82585227 -.00000036 00000-0 50337-4 0 9991 2 07530 101.5312 227.8808 0012184 132.5243 287.1057 12.53616487868118 FO-29 1 24278U 96046B 15254.46564367 -.00000006 00000-0 30864-4 0 9998 2 24278 98.5509 211.6325 0349925 207.0027 306.4607 13.53056174941691 SO-33 1 25509U 98061B 15253.87835957 .00000425 00000-0 72438-4 0 9992 2 25509 031.4308 125.6139 0347480 104.7410 259.1980 14.30056677882227 RS-22 1 27939U 03042A 15254.75373445 .00000405 00000-0 81863-4 0 9993 2 27939 97.8519 52.8507 0014179 110.3779 249.8958 14.66144734638875 HO-68 1 36122U 09072B 15254.73789044 -.00000060 00000-0 -43517-4 0 9993 2 36122 100.1858 296.4252 0006815 279.5192 80.5147 13.16329228275842 AO-73 1 39444U 13066AE 15254.74798915 .00000971 00000-0 13012-3 0 9994 2 39444 97.7226 314.3047 0058909 212.2251 147.5357 14.80444940 96226 EO-79 1 40025U 14033R 15254.66951363 .00000933 00000-0 10947-3 0 9997 2 40025 97.9428 155.0252 0011332 260.9727 99.0207 14.87351608 66647 UO-11 1 14781U 84021B 15254.22705931 .00000320 00000-0 46219-4 0 9993 2 14781 97.7929 309.1531 0009478 142.6911 217.4962 14.82499409694774 AO-16 1 20439U 90005D 15254.47812194 .00000029 00000-0 26771-4 0 9993 2 20439 98.5441 189.4223 0009648 266.1067 204.4361 14.32567717339092 LO-19 1 20442U 90005G 15254.80004187 .00000028 00000-0 26238-4 0 9996 2 20442 98.5149 189.0342 0010609 251.0944 108.9091 14.32758443339349 AO-27 1 22825U 93061C 15253.91965450 .00000039 00000-0 32515-4 0 9995 2 22825 098.7166 204.0864 0009470 061.2472 334.8648 14.29901562144918 IO-26 1 22826U 93061D 15254.85966182 .00000042 00000-0 33417-4 0 9999 2 22826 98.7110 205.1843 0009898 51.1604 309.0460 14.30220844145473 GO-32 1 25397U 98043D 15253.92084786 .00000005 00000-0 21035-4 0 9990 2 25397 098.5276 201.7083 0002462 081.5516 319.4452 14.23559205891761 NO-44 1 26931U 01043C 15253.80921146 .00000043 00000-0 48398-4 0 9999 2 26931 67.0523 316.2266 0006124 275.0501 84.9901 14.30340714728044 SO-50 1 27607U 02058C 15254.15492521 .00000300 00000-0 63259-4 0 9995 2 27607 64.5547 296.2793 0083260 271.8292 87.3276 14.74837260683960 CO-55 1 27844U 03031E 15254.88097855 .00000132 00000-0 79688-4 0 9997 2 27844 98.6965 262.1762 0010669 54.6582 305.5591 14.21843260632750 CO-57 1 27848U 03031J 15254.72143838 .00000110 00000-0 70187-4 0 9998 2 27848 98.7063 261.9711 0010687 61.9025 350.6367 14.21484653632645 AO-51 1 28375U 04025K 15254.78780151 .00000099 00000-0 42024-4 0 9994 2 28375 98.2973 192.7671 0083943 68.3323 292.6780 14.41693003588972 CP3 1 31129U 07012N 15254.40460935 .00000548 00000-0 12710-3 0 9995 2 31129 97.9901 216.4750 0097593 45.6902 118.6776 14.55932342445666 CO-65 1 32785U 08021C 15254.18210069 .00000755 00000-0 89881-4 0 9995 2 32785 97.6412 294.5479 0014449 138.1667 296.9283 14.87050962399013 PRISM 1 33493U 09002B 15254.85578212 .00002949 00000-0 28410-3 0 9990 2 33493 98.2450 96.4891 0017287 49.0659 311.2044 14.93684785359510 SOHLA-1 1 33496U 09002E 15254.88780273 .00000202 00000-0 40992-4 0 9998 2 33496 98.2238 23.5657 0005139 243.4019 235.2169 14.71421782355927 TISAT-1 1 36799U 10035E 15254.86148189 .00001486 00000-0 16466-3 0 9990 2 36799 98.0197 356.2790 0011537 284.2266 191.7089 14.88819362279855 STUDSAT 1 36801U 10035G 15254.86208158 .00010641 00000-0 57945-3 0 9997 2 36801 98.0698 19.3213 0005801 196.6997 163.4043 15.14615739281082 ALMASAT-1 1 38078U 12006B 15254.52664240 .00044281 35325-5 73411-3 0 9992 2 38078 69.4523 22.0837 0457584 137.9078 225.8186 14.83686561187823 CUBEBUG-1 1 39153U 13018D 15254.79849016 .00000681 00000-0 98364-4 0 9994 2 39153 98.0146 338.9095 0016607 337.7659 22.2830 14.79389876128288 ESTCUBE-1 1 39161U 13021C 15254.71100920 .00000542 00000-0 95777-4 0 9994 2 39161 98.0692 336.8749 0010751 44.7380 315.4696 14.71292385125965 DUCHIFAT-1 1 40021U 14033M 15254.70797252 .00001421 00000-0 15959-3 0 9994 2 40021 97.9449 155.5462 0011942 260.9970 98.9895 14.88329495 66675 NANOSATCBR1 1 40024U 14033Q 15254.72349260 .00001227 00000-0 14014-3 0 9996 2 40024 97.9431 155.2717 0011162 260.2603 99.7353 14.87874939 66663 DTUSAT-2 1 40030U 14033W 15254.71659615 .00000967 00000-0 11422-3 0 9990 2 40030 97.9414 154.7476 0010756 253.1495 106.8541 14.86978682 66630 ANTELSAT 1 40034U 14033AA 15254.73146623 .00001497 00000-0 23539-3 0 9997 2 40034 97.9325 144.8305 0058529 201.4076 158.4723 14.72882718 66035 MET-2/21 1 22782U 93055A 15254.84634891 .00000071 00000-0 50081-4 0 9999 2 22782 82.5522 174.9088 0023823 78.2843 339.1840 13.83776941112588 OKEAN-4 1 23317U 94066A 15254.45085697 .00000559 00000-0 59668-4 0 9999 2 23317 82.5408 4.3886 0021134 47.1839 70.7690 14.86812475130129 NOAA-14 1 23455U 94089A 15254.95825321 -.00000003 00000-0 21259-4 0 9998 2 23455 98.7482 334.6086 0009339 186.6483 292.4302 14.14051891 67794 NOAA-15 1 25338U 98030A 15254.97330562 .00000068 00000-0 47742-4 0 9995 2 25338 98.7769 253.6857 0009448 277.8800 82.1307 14.25659389901207 RESURS 1 25394U 98043A 15254.47714713 -.00000041 00000-0 44456-6 0 9993 2 25394 98.4740 206.4838 0002234 51.9629 55.2888 14.24457333892563 FENGYUN1 1 25730U 99025A 15254.48121515 .00000671 00000-0 37896-3 0 9996 2 25730 98.9487 219.3442 0019350 262.1230 248.6593 14.13616431841249 OKEAN-0 1 25860U 99039A 15253.99755943 .00000292 00000-0 49786-4 0 9999 2 25860 98.1042 222.2382 0001840 78.6967 323.4102 14.76128002868642 NOAA-16 1 26536U 00055A 15254.90253826 .00000021 00000-0 35180-4 0 9998 2 26536 98.9349 320.7650 0010274 353.5058 6.5980 14.13107647771908 NOAA-17 1 27453U 02032A 15254.94219220 .00000012 00000-0 22974-4 0 9995 2 27453 98.3484 236.6789 0010544 291.3406 68.6648 14.24898449687012 NOAA-18 1 28654U 05018A 15254.92390615 .00000085 00000-0 71840-4 0 9998 2 28654 99.1899 249.7073 0015356 78.3590 281.9303 14.12232190531310 NOAA-19 1 33591U 09005A 15254.97319098 .00000083 00000-0 70029-4 0 9991 2 33591 98.9977 205.0939 0013040 287.7222 72.2525 14.11975497339734 HUBBLE 1 20580U 90037B 15254.23085015 .00001197 00000-0 65171-4 0 9997 2 20580 28.4704 306.6261 0003185 82.4455 337.2561 15.07677902192802 ISS 1 25544U 98067A 15254.58297567 .00009956 00000-0 15193-3 0 9997 2 25544 51.6456 12.6443 0000484 340.9417 134.4284 15.55115231961486 CO-58 1 28895U 05043F 15254.78801199 .00000420 00000-0 90622-4 0 9993 2 28895 97.8222 78.0469 0017709 27.2800 332.9329 14.62890977526255 FALCON 1 30776U 07006E 15253.95081991 .00006247 00000-0 24308-3 0 9993 2 30776 035.4280 183.0659 0002594 291.9573 133.2758 15.25419869469407 MAST 1 31126U 07012K 15254.85698598 .00000403 00000-0 96358-4 0 9990 2 31126 97.9706 219.0010 0091593 26.3517 33.0863 14.56136458446108 CAPE1 1 31130U 07012P 15254.11151364 .00000507 00000-0 11902-3 0 9995 2 31130 97.9918 215.6407 0098336 48.6228 312.3374 14.55598362445382 COMPASS 1 32787U 08021E 15254.38295568 .00001272 00000-0 13379-3 0 9999 2 32787 97.6434 299.3858 0014445 123.6594 236.6004 14.91046322399356 AAUSAT2 1 32788U 08021F 15254.18156844 .00001136 00000-0 11692-3 0 9996 2 32788 97.6445 300.8524 0013848 120.9678 239.2904 14.92123878399425 DO-64 1 32789U 08021G 15254.81965800 .00003468 00000-0 27802-3 0 9997 2 32789 97.6645 313.7526 0013418 126.1999 297.3318 15.00707576400071 CO-66 1 32791U 08021J 15254.17978604 .00001042 00000-0 11611-3 0 9992 2 32791 97.6431 296.7731 0015082 131.0156 229.2368 14.89025383399110 RS-30 1 32953U 08025A 15254.83835772 .00000010 00000-0 -13620-7 0 9998 2 32953 82.4999 280.3544 0017599 250.5398 109.3780 12.43063447331373 METEOR-M 1 35865U 09049A 15254.77867053 .00000046 00000-0 40020-4 0 9999 2 35865 98.4933 291.9882 0001893 195.9668 295.1123 14.22048038310514 RS-38 1 35869U 09049E 15254.69984284 -.00000024 00000-0 79262-5 0 9998 2 35869 98.4849 291.5000 0003861 213.8644 146.2288 14.22307968310555 JUGNU 1 37839U 11058B 15253.69749407 .00000353 00000-0 46159-4 0 9997 2 37839 019.9622 044.1168 0018928 269.0782 163.6306 14.12486751202218 SRMSAT 1 37841U 11058D 15253.92039701 .00000342 00000-0 42901-4 0 9994 2 37841 019.9722 071.2149 0011781 193.7199 329.1453 14.10495761201970 RAX-2 1 37853U 11061D 15254.45922438 .00002944 00000-0 18338-3 0 9994 2 37853 101.6974 147.9370 0194505 183.1470 231.6137 14.96824634210019 AUBIESAT 1 37854U 11061E 15254.16358106 .00002566 00000-0 15641-3 0 9992 2 37854 101.6974 151.4842 0185529 178.1159 182.0789 14.99003614210098 HRBE 1 37855U 11061F 15254.50938434 .00002377 00000-0 14515-3 0 9998 2 37855 101.6952 150.3453 0195371 180.4372 179.6695 14.97805355210076 HORYU-2 1 38340U 12025D 15253.89679880 .00000692 00000-0 11223-3 0 9998 2 38340 98.3224 226.0872 0011772 177.2297 182.8978 14.74476817178163 RS-40 1 38735U 12041C 15254.66817905 .00000040 00000-0 21992-3 0 9993 2 38735 82.4790 6.0492 0016539 355.7537 4.3399 12.42570048141656 PROITERES 1 38756U 12047B 15254.84392685 .00000432 00000-0 70645-4 0 9990 2 38756 98.2258 355.6213 0012609 27.2178 332.9668 14.75913563161789 BEESAT-3 1 39134U 13015E 15254.09833745 .00003819 00000-0 22412-3 0 9991 2 39134 64.8728 142.4655 0026732 240.5143 119.3314 15.13007468131690 BEESAT-2 1 39136U 13015G 15254.84619436 .00003056 00000-0 19048-3 0 9999 2 39136 64.8735 143.2065 0026865 239.1557 120.6922 15.11241966131752 ZACUBE-1 1 39417U 13066B 15254.13965826 .00000707 00000-0 97924-4 0 9996 2 39417 97.7222 313.4024 0059474 215.3587 144.3675 14.79881498 97344 TRITON-1 1 39427U 13066M 15254.37180022 .00000467 00000-0 84488-4 0 9994 2 39427 97.7068 300.0198 0114151 251.6929 107.1830 14.66782221 96499 DELFIN3XT 1 39428U 13066N 15253.90155717 .00000825 00000-0 14456-3 0 9991 2 39428 097.7078 297.7385 0122437 258.6764 100.0663 14.65611587096111 GOMX-1 1 39430U 13066Q 15254.81148139 .00000270 00000-0 59318-4 0 9996 2 39430 97.6958 291.6407 0152529 276.8316 81.5441 14.58196443 96004 MO-76 1 39436U 13066W 15253.84541028 .00014087 00000-0 87716-3 0 9991 2 39436 097.7404 330.6626 0021729 169.7095 190.4583 15.09503024097254 LO-74 1 39440U 13066AA 15254.71752563 .00000682 00000-0 10443-3 0 9990 2 39440 97.7160 308.5591 0080821 227.4292 132.0079 14.74687414 97082 PUCPSAT-1 1 39442U 13066AC 15254.18484459 .00001205 00000-0 13328-3 0 9996 2 39442 97.7327 322.2180 0032592 196.5625 163.4531 14.88855776 96661 SPROUT 1 39770U 14029E 15254.35699500 .00001831 00000-0 22581-3 0 9990 2 39770 97.8737 350.0185 0008354 279.8130 80.2185 14.84075704 70417 POPSAT-HIP1 1 40028U 14033U 15254.71544350 .00000373 00000-0 47686-4 0 9999 2 40028 97.9442 155.1695 0012764 259.5253 100.4525 14.87220779 66640 EO-80 1 40032U 14033Y 15254.79693268 .00000972 00000-0 11495-3 0 9998 2 40032 97.9423 154.8400 0010751 252.9247 107.0791 14.86904819 66649 VELOX-1 1 40057U 14034E 15254.70651728 .00000933 00000-0 14304-3 0 9991 2 40057 98.2134 334.2199 0010242 326.9870 33.0717 14.76041425 64645 DAURIA DX 1 1 40071U 14037C 15254.70735793 .00000765 00000-0 10740-3 0 9998 2 40071 98.3523 329.6606 0007545 328.6063 31.4702 14.80496229 63590 UKUBE-1 1 40074U 14037F 15254.83771913 .00001090 00000-0 14329-3 0 9998 2 40074 98.3540 330.8595 0003886 340.8257 19.2794 14.82404089 63677 HODOYOSHI-1 1 40299U 14070B 15254.81504148 .00001623 00000-0 78870-4 0 9990 2 40299 97.4536 335.2571 0012818 184.2841 318.5392 15.19798672 46976 CHUBUSAT-1 1 40300U 14070C 15254.79102537 .00003137 00000-0 15614-3 0 9994 2 40300 97.4503 334.2702 0021894 188.9605 286.3426 15.18139570 46910 QSAT-EOS 1 40301U 14070D 15254.78834141 .00005788 00000-0 28488-3 0 9994 2 40301 97.4461 333.5288 0031336 191.1828 285.5726 15.17942526 46871 TSUBAME 1 40302U 14070E 15254.77104721 .00003465 00000-0 19317-3 0 9999 2 40302 97.4444 331.8164 0042514 196.7839 316.3821 15.13482416 46760 FIREBIRD FU3 1 40377U 15003B 15254.82802247 .00005054 00000-0 24934-3 0 9999 2 40377 99.1104 304.3659 0154304 329.9574 29.2862 15.08654476 33600 FIREBIRD FU4 1 40378U 15003C 15254.82531340 .00005148 00000-0 25362-3 0 9993 2 40378 99.1105 304.3706 0154575 329.9257 29.3156 15.08656339 33600 GRIFEX 1 40379U 15003D 15254.77540694 .00003250 00000-0 16574-3 0 9997 2 40379 99.1117 304.1185 0156150 331.7525 27.5293 15.07750316 33581 LAMBDA-SAT 1 40458U 98067GB 15136.30676273 .20783109 12527-4 14817-2 0 9995 2 40458 051.6075 233.7697 0010355 318.5347 043.1720 16.39926603 21161 NO-84 1 40654U 15254.34921759 .00017071 00000-0 41736-3 0 01224 2 40654 054.9883 206.1774 0243600 101.0286 261.8217 15.15830094017234 NO-83 1 40655U 15254.30415684 .00021376 00000-0 50934-3 0 01285 2 40655 054.9908 205.9247 0240085 101.2010 261.6071 15.16935517017239 DEORBITSAIL 1 40719U 15032E 15254.35651247 .00001861 00000-0 28564-3 0 9996 2 40719 98.0449 143.0888 0018593 56.2379 304.0565 14.74692764 9234 /EX